Showing default

ASBM-1, 60422

Orbit data source: Space-Track

ASBM-1, 60422 is a Norwegian payload satellite in HEO that was launched on Mon, 12 Aug 2024 UTC via an FALCON 9 launch vehicle from the Air Force Western Test Range (AFWTR). Payload-class satellites include a variety of spacecraft equipped with specific instruments for various scientific and technological missions. These include communications satellites like Starlink; space stations such as the ISS; scientific satellites like the Hubble; Earth observation satellites from companies like Planet Labs, Umbra, and HawkEye 360; GPS; miniature CubeSats for education and research; and military/defense satellites.

Loading next visibility...
Identifier
60422, 2024-143A
Orbit
HEO
Country
Flag of NONO / NOR
Related business
Manufacturer
NGIS SSG
Mission
Operational Commercial Communications
Bus & Motor
GEOSTAR-3, BT-4?
Mass
3,695 kg wet, 2,035 kg dry
Launch date (UTC)
2024-08-12 (1 year ago)
Launch vehicle
FALCON 9
Launch site
Air Force Western Test Range (AFWTR)
Object type
Payload
Rocket body
Debris
Shape & HBR
Box + 2 Pan, 13.5 m
Radar Cross Section
35.796 m², Large (>1 m²)

Expand to show TLE details & history
Last TLE update: 3 weeks ago

TLE from 3 weeks ago
0 ASBM-1
1 60422U 24143A   25266.92129580 -.00000031  00000-0  00000-0 0  9990
2 60422  62.4430  55.7803 5554261 267.7353  31.2266  1.50427523  7617
Epoch: 2025-09-23T22:06Z
TLE epoch observation values (Epoch: 2025-09-23T22:06:39.957Z)
Latitude
0.00003°
Longitude
81.03643°
Altitude
16,361.881 km
Speed
4.761 km/s
True Right ascension
03h 42m 49s
True Declination
0° 00' 00"
Sunlit
Object was in daylight at epoch
Visualization orbit readout
Latitude
Unknown
Longitude
Unknown
Altitude
Unknown
Speed
Unknown
Apparent Right ascension
Unknown
Apparent Declination
Unknown
Sunlit
N/A
Visualization observer readout
Local Sidereal Time
05:42:30
Azimuth
Unknown
Elevation
Unknown
Doppler factor
Unknown
Orbital elements
Apogee altitude
43,666.883 km
Perigee altitude
7,925.795 km
Semi-major axis
32,174.476 km
Eccentricity
0.55543
Inclination
62.443°
RAAN
55.7803°
Arg. of periapsis
267.7353°
True anomaly
92.42841°
Mean anomaly
31.2266°
Eccentric anomaly
58.30346°
Mean motion
0.37608 °/min
Orbital period
957.25 mins
BSTAR
0
Loading maneuver chart data...
Computing Atmospheric mass density...
Loading historical data...
Loading historical data...
Loading historical data...
Loading historical data...
Loading historical data...
Loading historical data...
Loading historical data...
Other satellites on launch #143 in the year 2024 (2024-08-12 UTC)

Documentation

Showing up to 5 results
|